Temperature
1 0 -0 -1 -1 -1 0 1 2 3 3 4 3 3 3 3 4 4 4 4 5 5 5 4 5 5 5 5 5 5 6 6 6 6 7 7 7 7 6 6 6 6 6
-0 -1 -1 -2 -2 -2 -1 -0 0 1 1 1 1 1 1 2 2 3 3 3 3 3 3 3 3 3 4 4 4 5 5 5 5 6 6 6 6 6 6 6 5 5 5
-1 -2 -2 -2 -3 -3 -2 -2 -1 -1 -0 -0 -0 0 0 0 1 1 2 2 2 2 2 2 2 2 3 3 3 4 4 4 4 5 5 5 5 5 5 5 4 4 4
-2 -2 -3 -4 -4 -4 -4 -3 -3 -2 -2 -1 -1 -1 -0 -0 -0 0 0 0 0 0 0 1 1 1 1 1 2 2 3 3 4 4 4 4 4 4 4 4 4 3 3
-3 -3 -4 -5 -5 -5 -4 -4 -4 -3 -3 -2 -2 -2 -1 -1 -1 -1 -1 -1 -1 -1 -1 -0 -0 -0 -0 -0 0 1 1 2 2 3 3 3 3 3 3 3 3 2 3
-5 -5 -6 -5 -5 -5 -5 -5 -4 -4 -4 -4 -3 -3 -3 -2 -2 -2 -2 -2 -2 -2 -2 -2 -2 -2 -2 -1 -1 -1 -0 0 1 1 2 2 2 2 2 1 1 1 2
-7 -7 -7 -7 -6 -6 -6 -5 -5 -5 -5 -5 -5 -5 -4 -4 -4 -4 -4 -4 -4 -4 -4 -4 -4 -4 -4 -3 -2 -2 -2 -1 -1 -0 -0 -0 -0 0 0 0 0 0 1
-8 -8 -8 -8 -7 -7 -6 -6 -6 -6 -6 -6 -6 -6 -6 -6 -6 -6 -5 -5 -5 -5 -5 -5 -5 -5 -5 -4 -4 -4 -4 -3 -3 -2 -2 -2 -2 -1 -1 -1 -1 -1 -1
-9 -9 -9 -8 -8 -8 -8 -7 -7 -7 -7 -7 -7 -7 -7 -7 -7 -7 -6 -6 -6 -6 -7 -7 -7 -7 -7 -6 -5 -6 -5 -5 -5 -4 -4 -3 -3 -3 -3 -3 -3 -3 -3
-9 -9 -9 -9 -9 -9 -9 -9 -8 -8 -8 -8 -8 -8 -8 -8 -8 -8 -7 -7 -7 -7 -7 -8 -8 -8 -8 -7 -7 -7 -6 -6 -6 -6 -5 -5 -5 -5 -5 -5 -5 -5 -5
-10 -9 -9 -9 -9 -9 -9 -9 -9 -9 -9 -8 -8 -8 -8 -8 -8 -9 -8 -8 -8 -8 -8 -8 -8 -8 -8 -8 -8 -7 -7 -7 -6 -6 -6 -7 -7 -7 -6 -6 -6 -6 -6
-10 -10 -10 -10 -10 -10 -10 -9 -9 -9 -9 -9 -9 -8 -8 -9 -9 -9 -9 -9 -9 -9 -9 -9 -9 -9 -9 -8 -8 -8 -8 -7 -7 -7 -7 -8 -8 -7 -7 -7 -7 -6 -6
-10 -10 -10 -10 -10 -10 -10 -10 -10 -10 -10 -10 -10 -9 -9 -9 -9 -9 -9 -9 -9 -9 -9 -9 -9 -9 -9 -9 -9 -9 -9 -8 -8 -8 -8 -8 -8 -8 -8 -8 -7 -7 -7
-11 -11 -11 -11 -11 -11 -11 -11 -11 -11 -11 -11 -11 -11 -11 -11 -10 -10 -10 -10 -9 -9 -10 -10 -10 -10 -10 -10 -10 -10 -10 -10 -10 -9 -9 -9 -9 -9 -9 -9 -8 -8 -7
-12 -13 -12 -12 -12 -12 -12 -12 -12 -11 -11 -12 -12 -12 -12 -12 -11 -11 -11 -10 -10 -10 -10 -10 -11 -11 -11 -11 -11 -11 -11 -11 -11 -11 -11 -10 -10 -10 -10 -10 -10 -9 -9
-13 -13 -13 -13 -13 -13 -13 -13 -13 -12 -12 -12 -12 -12 -12 -12 -12 -12 -12 -11 -11 -11 -11 -11 -12 -12 -12 -12 -12 -12 -12 -12 -12 -12 -12 -12 -11 -11 -11 -11 -11 -11 -11
-14 -14 -14 -14 -14 -14 -14 -14 -14 -13 -13 -13 -13 -13 -13 -13 -13 -13 -12 -12 -12 -12 -12 -12 -12 -12 -13 -13 -13 -13 -13 -13 -13 -13 -13 -13 -13 -13 -12 -12 -12 -12 -12
-14 -14 -14 -14 -15 -14 -14 -14 -14 -14 -14 -14 -14 -14 -13 -13 -13 -13 -13 -13 -13 -13 -13 -13 -13 -13 -13 -14 -14 -14 -14 -14 -14 -14 -14 -14 -14 -14 -13 -13 -13 -13 -13
-15 -15 -14 -15 -15 -15 -15 -15 -15 -15 -15 -15 -15 -14 -14 -14 -14 -14 -14 -14 -14 -14 -14 -14 -14 -14 -14 -14 -14 -15 -15 -15 -15 -15 -15 -15 -14 -14 -14 -14 -14 -13 -13
-15 -15 -15 -15 -15 -15 -15 -15 -15 -15 -15 -15 -15 -15 -15 -15 -15 -15 -15 -14 -14 -14 -14 -14 -14 -14 -15 -15 -15 -15 -15 -15 -15 -15 -15 -15 -15 -15 -15 -15 -15 -14 -14
-15 -15 -15 -15 -15 -15 -15 -15 -15 -15 -15 -15 -15 -15 -14 -15 -15 -15 -15 -15 -15 -15 -15 -15 -15 -15 -15 -15 -15 -16 -16 -16 -16 -16 -16 -16 -16 -16 -15 -15 -15 -14 -14
-15 -15 -15 -15 -15 -15 -15 -15 -15 -15 -15 -15 -15 -15 -15 -15 -15 -15 -16 -16 -16 -16 -16 -16 -16 -16 -16 -16 -16 -16 -16 -16 -16 -16 -16 -16 -16 -16 -16 -15 -15 -14 -14
-14 -15 -15 -15 -15 -15 -15 -15 -15 -15 -15 -15 -15 -15 -15 -15 -15 -15 -15 -16 -16 -16 -16 -16 -16 -16 -17 -17 -17 -17 -16 -16 -16 -16 -16 -16 -16 -15 -15 -15 -14 -14 -14
-14 -14 -15 -15 -15 -15 -15 -15 -15 -15 -15 -15 -15 -15 -15 -15 -15 -15 -15 -15 -16 -16 -16 -16 -16 -17 -17 -17 -17 -16 -16 -16 -16 -16 -16 -16 -15 -15 -14 -14 -14 -14 -14
-14 -15 -15 -15 -15 -15 -15 -15 -15 -15 -15 -15 -15 -15 -15 -15 -15 -15 -15 -15 -15 -15 -16 -16 -16 -16 -16 -16 -16 -16 -16 -16 -16 -15 -15 -15 -14 -14 -14 -14 -14 -14 -14
-14 -15 -15 -15 -15 -15 -15 -15 -15 -15 -15 -15 -15 -15 -15 -15 -15 -15 -15 -15 -15 -15 -15 -16 -16 -16 -16 -16 -16 -16 -15 -15 -15 -14 -14 -14 -14 -14 -14 -14 -14 -14 -14
Wind_Speed
10 12 13 14 16 17 15 14 9 6 5 4 3 3 4 4 4 3 3 3 3 3 3 2 3 3 2 3 3 4 4 5 6 5 4 4 4 6 5 6 5 2 2
10 12 13 15 15 15 15 14 12 9 7 5 3 2 2 2 2 2 2 3 3 3 3 3 3 3 3 2 2 3 4 5 6 6 5 4 4 5 6 5 3 2 2
11 12 13 14 15 15 14 13 12 10 8 6 4 2 2 1 2 3 4 5 6 7 7 8 7 7 6 5 5 4 3 3 3 5 5 3 2 3 5 5 4 3 4
11 11 12 13 14 14 13 12 11 10 8 6 5 3 3 4 5 6 7 8 8 8 8 8 7 7 6 6 6 6 5 4 2 1 2 2 2 3 4 4 4 4 4
12 12 12 13 12 12 12 12 11 10 9 8 8 7 6 4 6 7 7 8 8 7 7 6 7 8 9 7 6 6 6 5 4 3 2 2 2 3 3 3 3 3 3
12 12 12 13 12 12 11 11 11 10 10 10 11 10 9 7 10 11 8 6 6 6 5 4 3 5 7 9 8 7 6 5 4 3 3 3 4 4 4 3 2 2 2
12 12 12 12 12 12 11 10 10 10 9 9 9 8 8 10 13 12 10 6 5 5 5 6 5 5 7 6 7 5 3 3 4 3 3 4 4 4 3 3 4 2 2
11 11 11 11 12 12 12 11 10 8 7 6 6 7 5 8 11 10 9 5 4 5 6 7 7 6 6 6 6 5 4 2 4 5 5 4 4 4 3 3 3 4 5
11 11 10 10 11 11 11 10 8 8 7 6 5 6 6 7 10 10 9 4 2 3 5 6 6 7 9 9 8 6 5 6 6 7 6 4 4 4 2 1 2 3 3
12 10 9 9 10 10 10 9 8 7 7 7 6 5 5 5 8 9 9 5 5 4 3 5 7 7 9 9 6 6 6 6 7 8 7 7 5 5 6 4 2 2 2
13 11 9 9 9 8 9 7 7 7 7 6 5 5 3 4 6 8 9 6 6 5 4 4 5 8 8 8 6 5 5 5 5 5 4 4 5 6 7 6 5 4 2
13 11 10 9 10 10 8 8 7 8 7 7 6 6 4 3 3 5 7 6 5 4 4 4 4 7 8 7 4 5 7 6 3 4 4 4 5 5 5 5 5 4 4
13 12 11 10 9 9 8 7 7 7 7 7 7 7 7 7 7 9 10 10 7 2 0 2 3 5 6 5 4 5 5 4 4 4 4 3 4 4 4 4 4 4 5
13 12 11 10 9 9 9 8 6 5 5 7 8 8 8 7 6 6 6 8 9 5 2 1 3 4 2 4 4 4 4 3 3 2 2 3 3 3 3 3 3 4 4
12 12 11 11 10 8 9 9 9 5 6 6 4 5 7 6 10 15 11 6 3 2 2 2 2 1 1 2 3 4 4 4 4 3 3 3 3 3 3 4 4 4 4
12 12 10 10 10 9 8 9 14 15 17 15 12 9 8 11 16 16 15 12 8 5 3 3 3 1 2 3 3 3 3 3 3 3 3 4 4 4 4 4 4 4 5
13 13 10 12 11 11 10 10 10 12 16 17 18 16 14 14 15 15 15 11 8 5 2 3 2 2 1 1 1 1 2 2 1 2 3 4 4 4 5 5 5 5 6
12 13 12 9 10 9 9 10 10 10 10 9 13 18 17 16 17 17 15 9 5 4 2 2 2 2 2 1 1 1 1 1 2 2 3 4 4 5 6 6 5 6 7
11 9 8 6 8 9 9 9 9 9 9 9 9 11 16 16 17 17 15 6 4 4 3 3 2 2 1 1 1 1 2 2 3 3 4 5 5 5 6 6 6 11 10
9 18 16 9 7 8 8 8 8 7 7 8 8 7 8 9 7 8 7 5 5 4 4 4 3 3 2 2 2 3 3 3 4 4 5 5 5 5 6 7 7 8 8
7 11 18 11 7 7 7 7 6 6 6 7 6 10 15 7 5 6 6 5 5 5 5 5 4 4 3 3 3 4 4 4 5 5 5 5 5 5 6 7 8 9 10
7 7 7 8 7 7 8 7 6 7 7 7 5 9 14 6 4 6 6 5 4 4 5 5 4 4 3 3 4 4 5 5 5 5 6 6 5 6 6 7 8 9 10
7 9 9 9 9 14 12 7 8 8 8 7 7 8 7 5 5 5 4 5 5 5 4 4 5 4 4 5 5 5 5 6 6 6 7 7 7 7 8 9 11 11 12
9 10 11 11 11 10 11 11 10 11 10 9 8 8 6 5 5 5 5 4 5 5 4 4 4 6 7 6 8 9 10 12 12 10 10 11 11 11 10 11 12 14 14
11 13 13 13 13 13 13 13 13 12 13 12 10 8 7 6 6 5 5 4 5 5 5 5 5 6 7 8 9 11 16 21 21 18 13 12 14 14 14 15 14 14 13
14 15 16 15 15 15 15 15 15 15 14 14 12 9 8 7 6 6 5 4 4 4 5 4 7 8 9 11 13 17 21 23 24 24 15 9 10 11 11 11 13 13 12
Wind_Direction
357 350 340 336 335 335 335 338 346 5 24 32 23 3 334 340 348 348 336 337 337 323 317 284 263 262 260 247 222 214 217 203 214 234 238 239 190 162 148 141 116 96 349
357 350 343 339 337 335 336 341 348 357 9 6 346 326 303 305 327 1 355 4 7 3 8 24 11 6 357 321 284 243 231 219 207 219 233 238 205 164 135 120 100 59 356
2 353 348 345 341 338 336 339 341 345 348 341 328 325 343 3 53 58 62 61 64 61 59 60 46 44 34 17 11 355 308 267 227 212 222 218 178 118 105 89 69 38 9
1 357 352 346 342 341 341 343 343 342 341 339 338 359 30 59 71 71 72 73 74 70 66 63 55 48 37 28 37 18 5 3 358 222 203 173 126 94 98 90 64 33 5
0 359 352 346 342 342 343 344 345 347 354 1 7 14 24 48 69 73 72 76 78 75 68 66 62 52 48 54 59 39 25 24 26 38 58 74 77 69 80 85 79 30 337
359 358 352 347 345 346 346 350 356 5 12 16 14 12 19 41 64 69 71 71 75 73 66 57 72 67 45 43 49 49 45 43 35 35 35 48 61 64 63 65 68 48 323
357 355 351 348 349 349 350 355 1 5 10 15 12 12 19 32 44 49 49 49 60 65 56 38 26 36 56 32 16 20 37 68 73 63 32 26 48 47 49 40 32 18 285
352 349 347 347 348 351 355 358 358 358 1 3 1 3 15 27 27 25 25 27 38 59 63 51 24 14 43 28 360 349 353 38 79 65 59 37 41 46 46 17 339 317 295
347 345 346 348 347 350 352 351 351 348 351 351 356 3 6 15 16 8 4 339 21 59 82 83 50 34 32 28 11 2 21 27 45 40 24 357 338 324 309 16 338 331 316
343 341 345 348 346 347 343 341 345 344 343 345 347 346 355 15 3 1 6 1 30 34 54 104 80 50 26 22 12 12 39 29 10 3 360 355 6 20 41 66 36 16 352
339 342 346 346 341 345 338 336 341 341 339 334 325 321 353 47 10 12 20 33 26 14 17 66 71 48 17 5 12 24 22 13 348 340 346 3 30 45 44 41 38 37 8
339 343 345 345 346 348 335 337 343 341 343 341 340 343 8 43 40 11 8 15 19 11 21 63 46 24 359 349 3 359 357 1 1 11 21 30 39 34 19 3 346 331 296
342 342 341 343 345 341 337 341 351 349 354 353 355 359 2 4 6 8 4 355 342 329 26 44 15 1 353 347 349 348 1 29 41 29 21 28 28 6 346 334 334 331 315
340 340 341 342 343 341 343 344 347 347 353 353 347 348 347 350 354 357 349 342 339 333 353 357 330 321 295 289 328 17 42 34 39 20 1 11 360 343 334 338 333 325 312
338 339 341 344 338 337 344 341 339 326 327 333 331 332 332 330 324 327 332 329 338 353 9 338 306 316 21 26 29 36 37 25 19 23 24 2 340 333 329 329 318 311 301
342 341 342 342 339 341 340 340 342 343 342 344 338 331 327 324 325 329 329 330 327 324 337 317 314 355 40 42 34 27 19 7 18 18 0 339 326 320 313 309 304 301 297
341 340 346 345 341 341 343 343 340 342 347 348 347 341 336 333 332 329 324 323 316 310 310 311 337 14 22 22 3 322 309 333 0 325 303 303 305 307 306 304 301 299 295
338 341 346 338 336 338 340 340 340 342 342 341 340 337 338 339 337 333 329 332 332 329 299 282 269 262 248 239 247 271 297 319 311 299 297 298 298 298 296 295 295 295 298
339 334 334 330 334 337 338 336 337 338 336 332 329 332 335 336 337 338 346 349 331 321 315 312 302 288 270 243 245 251 251 257 266 270 272 273 274 275 280 282 288 294 297
330 335 340 336 331 329 327 325 325 321 319 318 318 317 318 328 334 331 332 328 330 325 322 317 312 303 290 264 255 251 249 249 256 257 258 259 261 265 272 277 279 283 284
314 323 333 328 309 304 300 296 295 296 299 306 307 318 330 344 332 324 329 341 349 345 336 329 324 318 309 293 274 263 257 251 250 252 254 254 254 258 261 267 272 276 280
306 305 305 302 299 296 295 287 287 285 289 297 301 315 328 335 322 326 330 328 316 308 306 305 301 295 291 286 280 272 265 261 259 257 256 255 254 258 261 266 269 271 273
298 299 300 296 292 297 301 287 282 282 282 283 289 302 309 309 308 308 300 292 285 283 280 279 282 278 270 271 269 265 263 261 257 254 255 258 257 259 261 263 264 266 269
300 298 296 295 293 288 285 282 280 280 278 276 274 277 271 265 268 274 273 276 280 281 274 270 268 269 273 274 270 268 265 266 263 256 249 253 258 261 260 259 260 261 263
302 299 298 295 293 290 287 283 280 276 275 274 269 264 253 247 247 250 251 257 271 279 285 284 275 273 276 279 279 277 283 285 283 275 257 253 255 255 256 256 258 260 260
307 305 303 300 297 294 291 287 283 280 274 271 267 257 249 245 241 239 237 240 251 265 277 281 279 280 280 282 284 290 294 295 293 291 284 268 263 261 259 258 257 257 258
Height
1455 1450 1445 1439 1433 1428 1423 1420 1418 1417 1417 1418 1419 1421 1423 1424 1424 1425 1425 1425 1426 1427 1428 1429 1431 1433 1434 1436 1438 1439 1441 1444 1445 1448 1451 1453 1454 1453 1453 1454 1456 1456 1457
1452 1447 1442 1437 1431 1426 1421 1418 1415 1413 1412 1412 1413 1414 1416 1418 1419 1419 1419 1419 1420 1420 1421 1423 1424 1426 1427 1429 1431 1433 1435 1438 1440 1441 1444 1447 1448 1448 1447 1448 1450 1451 1452
1449 1444 1439 1434 1429 1424 1420 1416 1413 1411 1410 1410 1410 1410 1411 1412 1413 1413 1414 1414 1414 1415 1416 1417 1418 1420 1421 1422 1424 1426 1428 1431 1433 1434 1437 1440 1441 1441 1441 1442 1444 1445 1447
1446 1442 1437 1432 1427 1423 1419 1415 1412 1410 1409 1409 1408 1407 1407 1407 1407 1408 1408 1409 1410 1412 1413 1414 1414 1415 1416 1417 1419 1420 1422 1424 1426 1428 1430 1432 1433 1434 1434 1435 1438 1440 1441
1445 1440 1436 1432 1427 1423 1419 1416 1413 1411 1409 1408 1407 1406 1405 1404 1404 1404 1405 1406 1407 1408 1409 1410 1411 1412 1412 1413 1415 1416 1417 1418 1420 1421 1424 1426 1426 1427 1428 1429 1431 1433 1436
1445 1440 1436 1432 1428 1424 1420 1417 1415 1412 1410 1408 1407 1406 1405 1404 1403 1403 1403 1404 1404 1405 1406 1407 1408 1408 1409 1410 1411 1412 1413 1414 1415 1416 1418 1419 1420 1421 1422 1424 1426 1428 1429
1446 1441 1437 1433 1429 1425 1422 1419 1416 1414 1411 1410 1408 1407 1406 1405 1404 1403 1403 1403 1404 1404 1405 1406 1407 1407 1406 1407 1408 1409 1410 1411 1412 1412 1413 1413 1414 1415 1418 1419 1421 1422 1423
1446 1441 1437 1433 1430 1426 1423 1420 1417 1415 1413 1411 1409 1408 1407 1406 1404 1404 1403 1403 1403 1403 1404 1404 1405 1405 1405 1405 1406 1406 1407 1407 1407 1408 1409 1409 1410 1411 1413 1414 1415 1416 1417
1446 1442 1438 1434 1430 1426 1423 1420 1418 1415 1413 1412 1410 1409 1408 1406 1405 1404 1403 1403 1403 1403 1402 1402 1403 1403 1403 1402 1402 1403 1404 1404 1404 1404 1405 1405 1406 1407 1408 1409 1410 1411 1411
1447 1443 1439 1435 1430 1427 1423 1421 1418 1416 1414 1412 1410 1409 1408 1406 1404 1403 1402 1402 1402 1402 1402 1401 1401 1402 1401 1400 1400 1400 1400 1400 1401 1401 1401 1402 1403 1403 1404 1405 1406 1407 1407
1448 1444 1440 1435 1431 1427 1424 1421 1418 1415 1413 1412 1410 1409 1407 1406 1404 1402 1402 1401 1401 1401 1402 1401 1400 1400 1400 1399 1399 1399 1398 1399 1399 1399 1399 1400 1400 1401 1402 1403 1403 1404 1404
1449 1444 1440 1436 1432 1428 1424 1421 1418 1415 1413 1411 1410 1409 1407 1405 1404 1402 1401 1401 1401 1401 1401 1400 1400 1399 1398 1398 1397 1397 1397 1397 1397 1397 1397 1398 1398 1398 1399 1400 1400 1400 1400
1448 1444 1440 1436 1432 1428 1425 1421 1418 1415 1412 1410 1409 1407 1406 1404 1403 1402 1401 1401 1400 1399 1399 1398 1398 1397 1397 1396 1396 1396 1395 1395 1394 1395 1395 1395 1395 1395 1395 1395 1395 1395 1395
1447 1443 1439 1435 1431 1427 1424 1421 1418 1415 1412 1410 1408 1406 1404 1403 1402 1401 1399 1398 1398 1397 1396 1396 1396 1396 1395 1395 1394 1394 1393 1393 1392 1392 1392 1392 1392 1391 1391 1391 1390 1390 1390
1447 1442 1438 1434 1430 1426 1423 1421 1418 1415 1413 1410 1407 1405 1403 1401 1400 1400 1398 1396 1395 1395 1394 1394 1394 1394 1393 1393 1392 1392 1391 1391 1390 1389 1389 1388 1388 1387 1387 1386 1386 1385 1384
1446 1442 1437 1433 1429 1426 1422 1419 1416 1414 1412 1409 1406 1404 1401 1400 1398 1396 1394 1393 1392 1391 1391 1391 1391 1391 1390 1390 1389 1389 1388 1388 1387 1386 1386 1385 1384 1383 1382 1382 1381 1381 1379
1447 1442 1438 1433 1429 1426 1422 1418 1414 1412 1410 1407 1404 1402 1400 1398 1395 1393 1391 1389 1388 1388 1388 1387 1387 1387 1387 1387 1386 1385 1385 1384 1383 1383 1382 1381 1380 1379 1378 1377 1376 1376 1375
1447 1443 1439 1434 1430 1426 1422 1419 1415 1412 1408 1405 1403 1400 1398 1395 1393 1391 1389 1387 1385 1385 1385 1385 1385 1384 1384 1383 1383 1382 1382 1381 1380 1379 1379 1378 1376 1375 1374 1373 1372 1371 1370
1447 1443 1439 1434 1430 1426 1422 1419 1415 1412 1408 1405 1401 1399 1396 1394 1391 1389 1386 1385 1384 1383 1383 1382 1382 1381 1381 1380 1380 1379 1378 1377 1377 1376 1375 1374 1372 1371 1370 1369 1368 1367 1366
1447 1443 1438 1434 1429 1425 1421 1418 1414 1411 1407 1404 1400 1397 1394 1392 1389 1387 1385 1384 1382 1381 1380 1379 1378 1378 1377 1376 1376 1375 1374 1374 1373 1372 1371 1369 1368 1367 1365 1364 1363 1362 1360
1445 1441 1437 1432 1427 1423 1419 1416 1412 1409 1405 1402 1399 1396 1393 1390 1387 1385 1383 1382 1380 1378 1376 1375 1374 1373 1373 1372 1371 1371 1370 1369 1368 1367 1366 1364 1363 1361 1360 1359 1358 1357 1355
1444 1438 1433 1429 1424 1420 1416 1413 1409 1406 1402 1399 1396 1393 1391 1388 1386 1383 1381 1379 1376 1374 1372 1371 1369 1368 1368 1367 1367 1366 1365 1364 1363 1362 1360 1359 1357 1356 1354 1353 1352 1351 1349
1440 1435 1429 1424 1420 1415 1411 1407 1404 1401 1398 1395 1393 1390 1388 1385 1383 1381 1378 1376 1373 1371 1369 1367 1365 1364 1363 1362 1361 1361 1360 1359 1357 1356 1354 1352 1351 1349 1348 1346 1345 1344 1343
1437 1430 1424 1418 1413 1409 1404 1400 1397 1394 1391 1389 1387 1385 1383 1381 1379 1378 1376 1373 1370 1368 1366 1364 1362 1360 1359 1358 1357 1356 1355 1353 1352 1350 1348 1346 1344 1342 1341 1339 1338 1336 1335
1431 1424 1418 1412 1406 1401 1396 1392 1388 1385 1383 1381 1379 1378 1376 1376 1375 1373 1372 1370 1368 1365 1363 1361 1359 1358 1356 1355 1353 1352 1350 1348 1346 1344 1342 1339 1337 1335 1333 1331 1329 1328 1327
1425 1418 1411 1404 1398 1392 1387 1382 1377 1374 1372 1370 1369 1369 1369 1369 1369 1369 1368 1367 1365 1363 1361 1359 1357 1356 1354 1353 1350 1348 1345 1343 1340 1337 1335 1332 1330 1327 1325 1323 1322 1320 1319